Telluride, CO

8:46 PM MST on February 24, 2017 (GMT -0700)
Telluride Regional

Weather History for KTEX - June, 2014

Change the Weather History Date:

Sunday, June 15, 2014

  Actual Average Record
Temperature  
Mean Temperature 52 °F -  
Max Temperature 66 °F 66 °F 77 °F (2007)
Min Temperature 37 °F 41 °F 30 °F (2001)
Degree Days  
Heating Degree Days 14    
Growing Degree Days 2 (Base 50)    
Moisture  
Dew Point 13 °F    
Average Humidity 24    
Maximum Humidity 45    
Minimum Humidity 10    
Precipitation  
Precipitation 0.00 in - - ()
Sea Level Pressure  
Sea Level Pressure 30.13 in    
Wind  
Wind Speed 7 mph (SSE)    
Max Wind Speed 21 mph    
Max Gust Speed 40 mph    
Visibility 10 miles    
Events      
Averages and records for this station are not official NWS values.
T = Trace of Precipitation, MM = Missing Value Source: NWS Daily Summary

Daily Weather History Graph

Daily Weather History Graph

Search for Another Location

Airport or City:

Trip Planner

Search our weather history database for the weather conditions in past years. The results will help you decide how hot, cold, wet, or windy it might be!

Date:

Astronomy

Jun. 15, 2014 Rise Set
Actual Time 5:48 AM MDT 8:35 PM MDT
Civil Twilight 5:17 AM MDT 9:07 PM MDT
Nautical Twilight 4:37 AM MDT 9:46 PM MDT
Astronomical Twilight 3:53 AM MDT 10:31 PM MDT
Moon 10:51 PM MDT (6/15) 8:43 AM MDT (6/15)
Length of Visible Light 15h 49m
Length of Day
14h 47m
Waning Gibbous, 91% of the Moon is Illuminated
Jun 15
Waning Gibbous
Jun 19
Last Quarter
Jun 27
New
Jul 5
First Quarter
Jul 12
Full

Hourly Weather History & Observations

Time (MDT) Temp. Windchill Dew Point Humidity Pressure Visibility Wind Dir Wind Speed Gust Speed Precip Events Conditions
12:17 AM 42.8 °F 39.3 °F 19.4 °F 39% 30.16 in 10.0 mi SE 5.8 mph - N/A   Clear
12:37 AM 42.8 °F 40.1 °F 19.4 °F 39% 30.16 in 10.0 mi SE 4.6 mph - N/A   Clear
12:59 AM 42.8 °F 39.3 °F 19.4 °F 39% 30.15 in 10.0 mi ESE 5.8 mph - N/A   Clear
1:37 AM 42.8 °F 41.1 °F 19.4 °F 39% 30.14 in 10.0 mi SE 3.5 mph - N/A   Clear
1:57 AM 42.8 °F 38.6 °F 19.4 °F 39% 30.14 in 10.0 mi ESE 6.9 mph - N/A   Clear
2:17 AM 41.0 °F 36.4 °F 19.4 °F 42% 30.14 in 10.0 mi ESE 6.9 mph - N/A   Clear
2:37 AM 39.2 °F 35.0 °F 19.4 °F 45% 30.14 in 10.0 mi ESE 5.8 mph - N/A   Clear
2:59 AM 41.0 °F 38.0 °F 19.4 °F 42% 30.14 in 10.0 mi ESE 4.6 mph - N/A   Clear
3:18 AM 41.0 °F 36.4 °F 19.4 °F 42% 30.14 in 10.0 mi SE 6.9 mph - N/A   Clear
3:37 AM 39.2 °F 34.2 °F 19.4 °F 45% 30.14 in 10.0 mi SE 6.9 mph - N/A   Clear
3:57 AM 39.2 °F 35.9 °F 17.6 °F 42% 30.14 in 10.0 mi ESE 4.6 mph - N/A   Clear
4:17 AM 39.2 °F 35.0 °F 17.6 °F 42% 30.14 in 10.0 mi SE 5.8 mph - N/A   Clear
4:37 AM 39.2 °F 34.2 °F 17.6 °F 42% 30.14 in 10.0 mi SE 6.9 mph - N/A   Clear
4:57 AM 39.2 °F 34.2 °F 17.6 °F 42% 30.13 in 10.0 mi SE 6.9 mph - N/A   Clear
5:17 AM 37.4 °F 33.8 °F 17.6 °F 45% 30.14 in 10.0 mi ESE 4.6 mph - N/A   Clear
5:37 AM 39.2 °F 35.0 °F 17.6 °F 42% 30.14 in 10.0 mi ESE 5.8 mph - N/A   Clear
5:59 AM 39.2 °F - 17.6 °F 42% 30.14 in 10.0 mi Calm Calm - N/A   Clear
6:17 AM 39.2 °F 34.2 °F 17.6 °F 42% 30.14 in 10.0 mi SE 6.9 mph - N/A   Clear
6:37 AM 39.2 °F 35.0 °F 17.6 °F 42% 30.14 in 10.0 mi SE 5.8 mph - N/A   Clear
6:57 AM 42.8 °F 40.1 °F 17.6 °F 36% 30.15 in 10.0 mi ESE 4.6 mph - N/A   Clear
7:17 AM 44.6 °F 42.2 °F 17.6 °F 34% 30.15 in 10.0 mi ESE 4.6 mph - N/A   Clear
7:57 AM 50.0 °F - 19.4 °F 30% 30.15 in 10.0 mi Calm Calm - N/A   Clear
8:17 AM 53.6 °F - 17.6 °F 24% 30.16 in 10.0 mi Calm Calm - N/A   Clear
8:37 AM 55.4 °F - 19.4 °F 25% 30.15 in 10.0 mi Calm Calm - N/A   Clear
8:59 AM 57.2 °F - 15.8 °F 20% 30.15 in 10.0 mi East 5.8 mph - N/A   Clear
9:17 AM 57.2 °F - 15.8 °F 20% 30.15 in 10.0 mi ESE 6.9 mph - N/A   Clear
9:37 AM 59.0 °F - 12.2 °F 16% 30.14 in 10.0 mi SSE 4.6 mph - N/A   Clear
9:58 AM 60.8 °F - 12.2 °F 15% 30.14 in 10.0 mi ESE 5.8 mph - N/A   Clear
10:17 AM 60.8 °F - 8.6 °F 13% 30.14 in 10.0 mi SSW 13.8 mph 20.7 mph N/A   Clear
10:37 AM 60.8 °F - 8.6 °F 13% 30.14 in 10.0 mi South 16.1 mph 26.5 mph N/A   Clear
10:57 AM 60.8 °F - 6.8 °F 12% 30.15 in 10.0 mi SSW 13.8 mph 27.6 mph N/A   Clear
11:19 AM 62.6 °F - 8.6 °F 12% 30.15 in 10.0 mi South 15.0 mph 25.3 mph N/A   Clear
11:37 AM 62.6 °F - 8.6 °F 12% 30.15 in 10.0 mi SSW 15.0 mph 23.0 mph N/A   Clear
11:57 AM 62.6 °F - 8.6 °F 12% 30.14 in 10.0 mi South 19.6 mph 24.2 mph N/A   Clear
12:17 PM 62.6 °F - 10.4 °F 13% 30.15 in 10.0 mi WSW 15.0 mph 26.5 mph N/A   Clear
12:58 PM 64.4 °F - 8.6 °F 11% 30.14 in 10.0 mi WSW 11.5 mph 26.5 mph N/A   Clear
2:17 PM 66.2 °F - 12.2 °F 12% 30.13 in 10.0 mi SSW 11.5 mph 24.2 mph N/A   Clear
2:37 PM 66.2 °F - 10.4 °F 11% 30.13 in 10.0 mi South 9.2 mph 24.2 mph N/A   Clear
2:57 PM 66.2 °F - 8.6 °F 11% 30.13 in 10.0 mi WSW 19.6 mph 23.0 mph N/A   Clear
3:17 PM 66.2 °F - 8.6 °F 11% 30.13 in 10.0 mi WSW 15.0 mph 21.9 mph N/A   Clear
3:38 PM 66.2 °F - 8.6 °F 11% 30.13 in 10.0 mi WSW 15.0 mph 25.3 mph N/A   Clear
3:57 PM 66.2 °F - 8.6 °F 11% 30.12 in 10.0 mi SW 16.1 mph 26.5 mph N/A   Clear
4:38 PM 66.2 °F - 8.6 °F 11% 30.11 in 10.0 mi SSW 11.5 mph 18.4 mph N/A   Clear
5:18 PM 66.2 °F - 8.6 °F 11% 30.10 in 10.0 mi South 15.0 mph 27.6 mph N/A   Clear
5:37 PM - - - N/A% 30.08 in 10.0 mi South 20.7 mph 40.3 mph N/A   Clear
5:57 PM 66.2 °F - 6.8 °F 10% 30.10 in 10.0 mi SSW 6.9 mph 24.2 mph N/A   Clear
6:37 PM 66.2 °F - 8.6 °F 11% 30.10 in 10.0 mi SSW 16.1 mph 24.2 mph N/A   Clear
6:58 PM - - - N/A% 30.09 in 10.0 mi South 13.8 mph 25.3 mph N/A   Clear
7:37 PM 64.4 °F - 8.6 °F 11% 30.10 in 10.0 mi South 6.9 mph - N/A   Clear
7:57 PM 64.4 °F - 6.8 °F 10% 30.10 in 10.0 mi Calm Calm - N/A   Clear
8:37 PM 62.6 °F - 6.8 °F 11% 30.09 in 10.0 mi South 9.2 mph - N/A   Clear
9:17 PM 62.6 °F - 8.6 °F 12% 30.10 in 10.0 mi SSE 10.4 mph 16.1 mph N/A   Clear
9:39 PM 62.6 °F - 8.6 °F 12% 30.10 in 10.0 mi SSE 9.2 mph - N/A   Clear
9:57 PM 60.8 °F - 8.6 °F 13% 30.11 in 10.0 mi SE 6.9 mph - N/A   Clear
10:17 PM 62.6 °F - 6.8 °F 11% 30.12 in 10.0 mi SSE 11.5 mph - N/A   Clear
10:57 PM 60.8 °F - 8.6 °F 13% 30.12 in 10.0 mi SSE 4.6 mph - N/A   Clear
11:17 PM 60.8 °F - 8.6 °F 13% 30.13 in 10.0 mi South 3.5 mph - N/A   Clear
11:37 PM 59.0 °F - 8.6 °F 14% 30.13 in 10.0 mi Calm Calm - N/A   Clear
11:57 PM 59.0 °F - 8.6 °F 14% 30.13 in 10.0 mi SSE 3.5 mph - N/A   Clear